AirNav   Air Wisconsin pilot careers
 
 724 users online  

KCOI Merritt Island Airport
Merritt Island, Florida, USA

GOING TO MERRITT ISLAND?


FAA INFORMATION EFFECTIVE 20 JUNE 2019

Location

FAA Identifier: COI
Lat/Long: 28-20-29.8000N / 080-41-07.7000W
28-20.496667N / 080-41.128333W
28.3416111 / -80.6854722
(estimated)
Elevation: 5.9 ft. / 1.8 m (surveyed)
Variation: 05W (2000)
Time zone: UTC -4 (UTC -5 during Standard Time)
Zip code: 32952

Airport Operations

Airport use: Open to the public
Activation date: 06/1952
Control tower: no
ARTCC: JACKSONVILLE CENTER
FSS: SAINT PETERSBURG FLIGHT SERVICE STATION
NOTAMs facility: PIE (NOTAM-D service available)
Attendance: 0800-2000
Wind indicator: lighted
Segmented circle: yes
Lights: ACTVT MIRL RY 11/29 - CTAF.
Beacon: white-green (lighted land airport)
ACTVT ROTG BCN - CTAF.
International operations: customs landing rights airport

Airport Communications

CTAF/UNICOM: 122.975
WX AWOS-3: 119.025 (321-986-8864)
ORLANDO APPROACH: 134.95 134.95
ORLANDO DEPARTURE: 134.95 134.95
BITHO STAR: 128.375
COSTR STAR: 128.375
MINEE STAR: 134.05
WX AWOS-3PT at TIX (12 nm NW): 120.625 (321-567-6090)
WX ASOS at MLB (14 nm S): PHONE 321-723-7403
WX AWOS-3 at X21 (19 nm NW): 119.725 (321-385-0384)

Nearby radio navigation aids

VOR radial/distance  VOR name  Freq  Var
MLBr356/14.4MELBOURNE VOR/DME110.0007W
ORLr109/36.3ORLANDO VORTAC112.2000E

Airport Services

Fuel available: 100LL JET-A
Parking: tiedowns
Airframe service: MAJOR
Powerplant service: MAJOR
Bottled oxygen: NONE
Bulk oxygen: NONE

Runway Information

Runway 11/29

Dimensions: 3601 x 75 ft. / 1098 x 23 m
Surface: asphalt, in fair condition
Weight bearing capacity: 
PCN 23 /F/A/X/T
Single wheel: 22.0
Runway edge lights: medium intensity
RUNWAY 11  RUNWAY 29
Latitude: 28-20.594410N28-20.397540N
Longitude: 080-41.445940W080-40.812175W
Elevation: 5.9 ft.2.9 ft.
Traffic pattern: leftleft
Runway heading: 114 magnetic, 109 true294 magnetic, 289 true
Markings: nonprecision, in good conditionnonprecision, in good condition
Visual slope indicator: 2-light PAPI on left (3.00 degrees glide path)2-light PAPI on left (3.00 degrees glide path)
Touchdown point: yes, no lightsyes, no lights
Obstructions: 20 ft. bldg, 122 ft. from runway, 250 ft. left of centerline, 1:1 slope to clear
RY 11 HAS 20 FT BLDG. 122 FT FROM RY END 250 FT L.
25 ft. boat, 700 ft. from runway, 250 ft. right of centerline, 20:1 slope to clear

Airport Ownership and Management from official FAA records

Ownership: Publicly-owned
Owner: TITUSVILLE-COCOA AIRPORT DISTRICT
355 GOLDEN KNIGHTS BLVD
TITUSVILLE, FL 32780
Phone 321-267-8780
CONTACT PERSON: MICHAEL POWELL C.M, ACE
Manager: DEBBIE MARINO
355 GOLDEN KNIGHTS BLVD
TITUSVILLE, FL 32780
Phone 321-267-8780
ARPT PHONE 321-453-2222.

Airport Operational Statistics

Aircraft based on the field: 55
Single engine airplanes: 43
Multi engine airplanes: 7
Helicopters: 5
    
Aircraft operations: avg 311/day *
56% local general aviation
42% transient general aviation
1% air taxi
* for 12-month period ending 15 August 2018

Additional Remarks

BANNER TOWING.
24 HR HELICOPTER OPNS SW RAMP.
PATRICK AIR FORCE BASE (COF) CLASS D AIRSPACE IS IN CLOSE PROXIMITY TO MERRITT ISLAND ARPT AND COF CROSSING RWY 11/29 HAS SAME ORIENTATION AS MERRITT ISLAND ARPT.
FOR CD CTC MIAMI ARTCC AT 305-716-1731.

Instrument Procedures

NOTE: All procedures below are presented as PDF files. If you need a reader for these files, you should download the free Adobe Reader.

NOT FOR NAVIGATION. Please procure official charts for flight.
FAA instrument procedures published for use from 20 June 2019 at 0901Z to 19 July 2019 at 0900Z.

 
STARs - Standard Terminal Arrivals
BITHO SEVEN   download (191KB)
COSTR THREE (RNAV)   2 pages: [1] [2] (285KB)
GOOFY SEVEN   download (246KB)
MINEE FIVE   2 pages: [1] [2] (319KB)
 
IAPs - Instrument Approach Procedures
RNAV (GPS) RWY 11   download (226KB)
NOTE: Special Alternate Minimums apply   download (20KB)
NOTE: Special Take-Off Minimums/Departure Procedures apply   download (162KB)

Other nearby airports with instrument procedures:

KCOF - Patrick Air Force Base (8 nm SE)
KXMR - Cape Canaveral Air Force Station Skid Strip (10 nm NE)
KTIX - Space Coast Regional Airport (12 nm NW)
KMLB - Melbourne International Airport (14 nm S)
KTTS - NASA Shuttle Landing Facility (16 nm N)
X21 - Arthur Dunn Air Park (19 nm NW)
 
Loc | Ops | Rwys | IFR | FBO | Links
Com | Nav | Svcs | Stats | Notes


 
Area around KCOI (Merritt Island Airport)
 
Road maps at: MapQuest Bing Google
 
Aerial photo
WARNING: Photo may not be current or correct
Aerial photo of KCOI (Merritt Island Airport)
Photo by Whitney Van Brink
Photo taken 19-Feb-2007
from a Cessna 177B

Do you have a better or more recent aerial photo of Merritt Island Airport that you would like to share? If so, please send us your photo.

 
Sectional chart

 
Airport distance calculator
Flying to Merritt Island Airport? Find the distance to fly.

From to KCOI

Sunrise and sunset
Times for 26-Jun-2019
 Local
(UTC-4)
 Zulu
(UTC)
Morning civil twilight06:0210:02
Sunrise06:2810:28
Sunset20:2300:23
Evening civil twilight20:5000:50

Current date and time
Zulu (UTC)  26-Jun-2019 11:33:54
Local (UTC-4)  26-Jun-2019 07:33:54
 
METAR
KCOF 
9nm SE 
261056Z AUTO 28004KT 10SM CLR 26/23 A3008 RMK AO2 SLP191 T02590226 $
KXMR 
11nm NE 
261056Z AUTO 00000KT 10SM CLR 25/06 A3006 RMK AO2 SLP182 T02530060 $
KTIX 
12nm NW 
261047Z 00000KT 7SM SCT050 25/21 A3008
KMLB 
15nm S 
261053Z 27004KT 10SM CLR 24/21 A3008 RMK AO2 SLP185 T02440206
KTTS 
17nm N 
261056Z AUTO 32004KT 10SM CLR 24/17 A3007 RMK AO2 SLP187 T02350170 $
TAF
KCOF 
9nm SE 
261000Z 2610/2716 VRB06KT 9999 BKN030 BKN100 QNH2999INS BECMG 2613/2614 VRB06KT 9999 SCT030 BKN100 QNH2999INS BECMG 2618/2619 05010KT 9999 FEW040 QNH2999INS TX31/2617Z TN26/2708Z
KTIX 
12nm NW 
260520Z 2606/2706 21003KT P6SM SCT060 BKN250 FM261500 05005KT P6SM FEW035 SCT250 FM261800 09011KT P6SM FEW040 AMD NOT SKED TIL 261100
KMLB 
15nm S 
260520Z 2606/2706 VRB03KT P6SM SCT060 BKN250 FM261500 05005KT P6SM FEW035 SCT250 FM261800 09010KT P6SM FEW040
NOTAMs
Click for the latest NOTAMs
NOTAMs are issued by the DoD/FAA and will open in a separate window not controlled by AirNav.

 

 
 

FBO, Fuel Providers, and Aircraft Ground Support

  
 Business Name 
 
 Contact 
 
 Services / Description 
 
Fuel Prices
 
Comments
  
 Space Coast Aviation
321-453-2222
[web site]
[email]

Like us on facebook
Aviation fuel, Aircraft parking (ramp or tiedown), Flight training, Aircraft rental, Aerial tours / aerial sightseeing, Aerial photography, Aircraft maintenance, ...

More info about Space Coast Aviation
Phillips 66
100LL
FS $5.17 
SS $4.51 
GUARANTEED
 
   6 read write
FS=Full service
SS=Self service
Update Fuel Prices
 

Would you like to see your business listed on this page?

 If your business provides an interesting product or service to pilots, flight crews, aircraft, or users of the Merritt Island Airport, you should consider listing it here.  To start the listing process, click on the button below
 
Add a business
 

Other Pages about Merritt Island Airport

www.flairport.com
 
Update a link
 
Copyright © AirNav, LLC. All rights reserved. Privacy Policy  Contact